Hourly Weather Kozlovo

Today, 20 October, Tuesday

Time Temperature Precipitation Wind Pressure Humidity
00:00 +1°C° 0 mm 5 mps 745 mmHg 82%
01:00 +1°C° 0 mm 5 mps 745 mmHg 84%
02:00 +1°C° 0 mm 5 mps 745 mmHg 86%
03:00 +1°C° 0 mm 5 mps 745 mmHg 88%
04:00 0°C° 0 mm 5 mps 745 mmHg 89%
05:00 0°C° 0 mm 5 mps 745 mmHg 91%
06:00 0°C° 0 mm 5 mps 745 mmHg 89%
07:00 +1°C° 0 mm 6 mps 745 mmHg 87%
08:00 +1°C° 0 mm 6 mps 746 mmHg 86%
09:00 +2°C° 0 mm 6 mps 746 mmHg 81%
10:00 +2°C° 0 mm 6 mps 746 mmHg 76%
11:00 +3°C° 0 mm 7 mps 746 mmHg 71%
12:00 +3°C° 0 mm 7 mps 747 mmHg 71%
13:00 +3°C° 0 mm 6 mps 747 mmHg 70%
14:00 +3°C° 0 mm 6 mps 748 mmHg 70%
15:00 +2°C° 0 mm 6 mps 748 mmHg 71%
16:00 +2°C° 0 mm 5 mps 749 mmHg 72%
17:00 +3°C° 0 mm 4 mps 749 mmHg 73%
18:00 +1°C° 0 mm 4 mps 749 mmHg 75%
19:00 +1°C° 0 mm 3 mps 750 mmHg 78%
20:00 +2°C° 0 mm 2 mps 750 mmHg 81%
21:00 +1°C° 0 mm 2 mps 750 mmHg 83%
22:00 +1°C° 0 mm 2 mps 750 mmHg 85%
23:00 +1°C° 0 mm 2 mps 751 mmHg 87%

Tomorrow, 21 October, Wednesday

Time Temperature Precipitation Wind Pressure Humidity
00:00 +1°C° 0 mm 2 mps 751 mmHg 86%
01:00 +1°C° 0 mm 2 mps 751 mmHg 86%
02:00 +1°C° 0 mm 2 mps 751 mmHg 85%
03:00 +2°C° 0 mm 2 mps 751 mmHg 85%
04:00 +2°C° 0 mm 2 mps 751 mmHg 84%
05:00 +2°C° 0 mm 2 mps 750 mmHg 84%
06:00 +2°C° 0 mm 3 mps 750 mmHg 83%
07:00 +2°C° 0 mm 3 mps 750 mmHg 83%
08:00 +2°C° 0 mm 3 mps 749 mmHg 82%
09:00 +3°C° 0.3 mm 3 mps 749 mmHg 84%
10:00 +3°C° 0.3 mm 3 mps 749 mmHg 85%
11:00 +4°C° 0.3 mm 4 mps 748 mmHg 87%
12:00 +4°C° 0.8 mm 4 mps 748 mmHg 89%
13:00 +4°C° 0.8 mm 3 mps 747 mmHg 91%
14:00 +4°C° 0.8 mm 3 mps 747 mmHg 93%
15:00 +4°C° 0.4 mm 3 mps 746 mmHg 94%
16:00 +4°C° 0.4 mm 3 mps 746 mmHg 95%
17:00 +5°C° 0.4 mm 2 mps 745 mmHg 96%
18:00 +5°C° 0.1 mm 2 mps 745 mmHg 96%
19:00 +5°C° 0.1 mm 2 mps 746 mmHg 96%
20:00 +5°C° 0.1 mm 2 mps 746 mmHg 96%
21:00 +5°C° 0 mm 2 mps 746 mmHg 96%
22:00 +5°C° 0 mm 2 mps 746 mmHg 97%
23:00 +6°C° 0 mm 1 mps 746 mmHg 97%

Day after tomorrow, 22 October, Thursday

Time Temperature Precipitation Wind Pressure Humidity
00:00 +6°C° 0 mm 1 mps 746 mmHg 97%
01:00 +6°C° 0 mm 1 mps 746 mmHg 97%
02:00 +6°C° 0 mm 1 mps 746 mmHg 97%
03:00 +6°C° 0 mm 1 mps 746 mmHg 96%
04:00 +6°C° 0 mm 1 mps 746 mmHg 96%
05:00 +7°C° 0 mm 1 mps 746 mmHg 96%
06:00 +6°C° 0 mm 2 mps 746 mmHg 95%
07:00 +6°C° 0 mm 2 mps 745 mmHg 95%
08:00 +5°C° 0 mm 3 mps 745 mmHg 94%
09:00 +5°C° 0.6 mm 3 mps 745 mmHg 94%
10:00 +5°C° 0.6 mm 4 mps 745 mmHg 94%
11:00 +5°C° 0.6 mm 4 mps 744 mmHg 95%
12:00 +6°C° 0.1 mm 4 mps 744 mmHg 92%
13:00 +7°C° 0.1 mm 5 mps 744 mmHg 89%
14:00 +8°C° 0.1 mm 5 mps 743 mmHg 86%
15:00 +8°C° 0 mm 4 mps 743 mmHg 87%
16:00 +8°C° 0 mm 4 mps 743 mmHg 89%
17:00 +8°C° 0 mm 3 mps 743 mmHg 90%
18:00 +8°C° 0 mm 3 mps 743 mmHg 91%
19:00 +8°C° 0 mm 3 mps 743 mmHg 92%
20:00 +8°C° 0 mm 3 mps 743 mmHg 94%
21:00 +8°C° 0 mm 3 mps 743 mmHg 94%
22:00 +8°C° 0 mm 3 mps 744 mmHg 95%
23:00 +8°C° 0 mm 3 mps 744 mmHg 95%

23 October, Friday

Time Temperature Precipitation Wind Pressure Humidity
00:00 +8°C° 0 mm 3 mps 744 mmHg 95%
01:00 +8°C° 0 mm 3 mps 744 mmHg 95%
02:00 +8°C° 0 mm 3 mps 744 mmHg 95%
03:00 +8°C° 0 mm 3 mps 743 mmHg 96%
04:00 +8°C° 0 mm 3 mps 743 mmHg 96%
05:00 +8°C° 0 mm 3 mps 743 mmHg 96%
06:00 +8°C° 0 mm 3 mps 743 mmHg 95%
07:00 +7°C° 0 mm 4 mps 742 mmHg 94%
08:00 +8°C° 0 mm 4 mps 742 mmHg 93%
09:00 +10°C° 0 mm 4 mps 742 mmHg 89%
10:00 +11°C° 0 mm 4 mps 742 mmHg 85%
11:00 +12°C° 0 mm 5 mps 742 mmHg 81%
12:00 +12°C° 0 mm 5 mps 741 mmHg 79%
13:00 +12°C° 0 mm 5 mps 741 mmHg 76%
14:00 +13°C° 0 mm 5 mps 741 mmHg 73%
15:00 +12°C° 0 mm 5 mps 740 mmHg 76%
16:00 +12°C° 0 mm 4 mps 740 mmHg 79%
17:00 +11°C° 0 mm 4 mps 740 mmHg 82%
18:00 +11°C° 0.2 mm 4 mps 739 mmHg 85%
19:00 +11°C° 0.2 mm 4 mps 739 mmHg 87%
20:00 +10°C° 0.2 mm 4 mps 739 mmHg 89%
21:00 +10°C° 0.9 mm 4 mps 739 mmHg 91%
22:00 +10°C° 0.9 mm 5 mps 739 mmHg 92%
23:00 +10°C° 0.9 mm 5 mps 738 mmHg 94%

24 October, Saturday

Time Temperature Precipitation Wind Pressure Humidity
00:00 +10°C° 0.3 mm 5 mps 738 mmHg 93%
01:00 +10°C° 0.3 mm 5 mps 738 mmHg 92%
02:00 +10°C° 0.3 mm 5 mps 738 mmHg 92%
03:00 +10°C° 0 mm 5 mps 738 mmHg 92%
04:00 +11°C° 0 mm 4 mps 738 mmHg 92%
05:00 +10°C° 0 mm 4 mps 739 mmHg 92%
06:00 +10°C° 0 mm 4 mps 739 mmHg 91%
07:00 +10°C° 0 mm 4 mps 739 mmHg 90%
08:00 +10°C° 0 mm 4 mps 739 mmHg 90%
09:00 +10°C° 0 mm 4 mps 739 mmHg 87%
10:00 +11°C° 0 mm 4 mps 740 mmHg 85%
11:00 +11°C° 0 mm 4 mps 740 mmHg 83%
12:00 +11°C° 0 mm 4 mps 740 mmHg 83%
13:00 +11°C° 0 mm 4 mps 740 mmHg 84%
14:00 +11°C° 0 mm 4 mps 740 mmHg 84%
15:00 +10°C° 0 mm 4 mps 739 mmHg 86%
16:00 +10°C° 0 mm 3 mps 739 mmHg 87%
17:00 +10°C° 0 mm 3 mps 739 mmHg 88%
18:00 +9°C° 0.1 mm 3 mps 739 mmHg 88%
19:00 +8°C° 0.1 mm 3 mps 739 mmHg 88%
20:00 +8°C° 0.1 mm 3 mps 738 mmHg 88%
21:00 +8°C° 0 mm 3 mps 738 mmHg 88%
22:00 +8°C° 0 mm 3 mps 738 mmHg 89%
23:00 +7°C° 0 mm 3 mps 738 mmHg 89%

25 October, Sunday

Time Temperature Precipitation Wind Pressure Humidity
00:00 +7°C° 0.4 mm 3 mps 737 mmHg 90%
01:00 +7°C° 0.4 mm 3 mps 737 mmHg 91%
02:00 +7°C° 0.4 mm 3 mps 737 mmHg 92%
03:00 +7°C° 0.3 mm 3 mps 737 mmHg 92%
04:00 +6°C° 0.3 mm 4 mps 737 mmHg 91%
05:00 +6°C° 0.3 mm 4 mps 736 mmHg 90%
06:00 +6°C° 0.5 mm 5 mps 737 mmHg 90%
07:00 +6°C° 0.5 mm 5 mps 737 mmHg 90%
08:00 +5°C° 0.5 mm 6 mps 737 mmHg 90%
09:00 +6°C° 0.3 mm 5 mps 737 mmHg 88%
10:00 +7°C° 0.3 mm 5 mps 738 mmHg 85%
11:00 +7°C° 0.3 mm 5 mps 738 mmHg 83%
12:00 +7°C° 0.1 mm 5 mps 739 mmHg 84%
13:00 +7°C° 0.1 mm 5 mps 739 mmHg 84%
14:00 +8°C° 0.1 mm 4 mps 739 mmHg 85%
15:00 +7°C° 0.1 mm 5 mps 740 mmHg 86%
16:00 +7°C° 0.1 mm 5 mps 740 mmHg 86%
17:00 +7°C° 0.1 mm 6 mps 741 mmHg 87%
18:00 +6°C° 0 mm 5 mps 741 mmHg 86%
19:00 +5°C° 0 mm 4 mps 742 mmHg 85%
20:00 +4°C° 0 mm 4 mps 743 mmHg 84%
21:00 +4°C° 0 mm 4 mps 743 mmHg 85%
22:00 +4°C° 0 mm 4 mps 744 mmHg 87%
23:00 +3°C° 0 mm 4 mps 744 mmHg 89%

26 October, Monday

Time Temperature Precipitation Wind Pressure Humidity
00:00 +3°C° 0 mm 4 mps 745 mmHg 90%
01:00 +2°C° 0 mm 3 mps 745 mmHg 90%
02:00 +2°C° 0 mm 3 mps 745 mmHg 91%
03:00 +1°C° 0 mm 3 mps 746 mmHg 92%
04:00 +1°C° 0 mm 3 mps 746 mmHg 93%
05:00 +2°C° 0 mm 2 mps 746 mmHg 95%
06:00 +1°C° 0 mm 3 mps 746 mmHg 93%
07:00 +2°C° 0 mm 3 mps 746 mmHg 91%
08:00 +2°C° 0 mm 3 mps 746 mmHg 90%
09:00 +3°C° 0.1 mm 3 mps 746 mmHg 90%
10:00 +3°C° 0.1 mm 3 mps 746 mmHg 91%
11:00 +4°C° 0.1 mm 3 mps 746 mmHg 91%
12:00 +4°C° 0.3 mm 4 mps 746 mmHg 92%
13:00 +5°C° 0.3 mm 4 mps 746 mmHg 94%
14:00 +6°C° 0.3 mm 4 mps 746 mmHg 95%
15:00 +6°C° 0.1 mm 4 mps 746 mmHg 94%
16:00 +6°C° 0.1 mm 5 mps 746 mmHg 93%
17:00 +7°C° 0.1 mm 5 mps 747 mmHg 92%
18:00 +6°C° 0 mm 4 mps 747 mmHg 91%
19:00 +4°C° 0 mm 4 mps 748 mmHg 91%
20:00 +3°C° 0 mm 3 mps 748 mmHg 90%
21:00 +2°C° 0 mm 3 mps 749 mmHg 91%
22:00 +2°C° 0 mm 2 mps 749 mmHg 92%
23:00 +1°C° 0 mm 2 mps 750 mmHg 93%
Show more